Regional Weather Roundup
Issued by NWS

Home | Current Version | Previous Version | Text Only | Print | Product List | Glossary On
Versions: 1 2 3 4 5 6 7 8 9 10 11 12 13 14 15 16 17 18 19 20 21 22 23 24 25 26 27 28 29 30 31 32 33 34 35 36 37 38 39 40 41 42 43 44 45 46 47 48 49 50
000
ASUS43 KDTX 241201
RWRMI
MICHIGAN HOURLY REGIONAL WEATHER ROUNDUP
NATIONAL WEATHER SERVICE DETROIT/PONTIAC MI
700 AM EST SAT FEB 24 2018

NOTE: "FAIR" INDICATES FEW OR NO CLOUDS BELOW 12,000 FEET WITH NO
SIGNIFICANT WEATHER AND/OR OBSTRUCTION TO VISIBILITY.

MIZ047>049-052>055-059>063-066>070-074>076-081>083-241300-
SOUTHEAST LOWER MICHIGAN

CITY           SKY/WX    TMP DP  RH WIND       PRES   REMARKS
ADRIAN         CLOUDY    36  31  82 NE7       30.23S WCI  30
6HR MIN TEMP:  36; 6HR MAX TEMP:  38;

ALMA           CLOUDY    32  31  97 CALM      30.25R
6HR MIN TEMP:  32; 6HR MAX TEMP:  36;

ANN ARBOR      CLOUDY    36  30  79 N5        30.23R WCI  32
BAD AXE        CLOUDY    32  29  90 NE6       30.26S WCI  26
6HR MIN TEMP:  32; 6HR MAX TEMP:  36;

CARO           CLOUDY    33  32  96 CALM      30.24R
DETROIT CITY   CLOUDY    37  30  75 NE3       30.24S
6HR MIN TEMP:  37; 6HR MAX TEMP:  40;

DETROIT        CLOUDY    38  31  76 N5        30.24S WCI  34
6HR MIN TEMP:  38; 6HR MAX TEMP:  40;

FLINT          CLOUDY    34  29  82 CALM      30.24S
6HR MIN TEMP:  34; 6HR MAX TEMP:  36;

GROSSE ILE     CLOUDY    37  32  84 CALM      30.23S
6HR MIN TEMP:  37; 6HR MAX TEMP:  40;

HILLSDALE      CLOUDY    34  32  93 NE7       30.19S WCI  28
HOWELL         CLOUDY    34  30  86 CALM      30.21F
6HR MIN TEMP:  34; 6HR MAX TEMP:  37;


CITY           SKY/WX    TMP DP  RH WIND       PRES   REMARKS
JACKSON        CLOUDY    35  31  85 NE5       30.21S WCI  31
6HR MIN TEMP:  35; 6HR MAX TEMP:  36;

LAMBERTVILLE   CLOUDY    37  33  85 NE5       30.21F WCI  33
6HR MIN TEMP:  37; 6HR MAX TEMP:  40;

LANSING        CLOUDY    34  29  82 CALM      30.23F
6HR MIN TEMP:  34; 6HR MAX TEMP:  36;

LAPEER         MOCLDY    32  32 100 CALM      30.23S
6HR MIN TEMP:  32; 6HR MAX TEMP:  37;

MASON          CLOUDY    35  29  78 CALM      30.22S
6HR MIN TEMP:  35; 6HR MAX TEMP:  37;

MONROE         CLOUDY    37  32  81 NE3       30.22S
6HR MIN TEMP:  37; 6HR MAX TEMP:  40;

MT. CLEMENS    CLOUDY    36  36  99 CALM      30.22S
6HR MIN TEMP:  35; 6HR MAX TEMP:  39;

PONTIAC        CLOUDY    35  30  82 N3        30.21S
6HR MIN TEMP:  35; 6HR MAX TEMP:  37;

PORT HOPE        N/A     32  26  78 N12       30.24S WCI  23
6HR MIN TEMP:  32; 6HR MAX TEMP:  37;

PORT HURON     CLOUDY    36  30  80 CALM      30.23F
TRI CITIES     CLOUDY    33  28  81 CALM      30.25S
6HR MIN TEMP:  32; 6HR MAX TEMP:  37;

MIDLAND        CLOUDY    30  28  92 CALM      30.25S
6HR MIN TEMP:  30; 6HR MAX TEMP:  37;

TROY           CLOUDY    37  32  79 NE3       30.24F
SAGINAW HB     CLOUDY    32  30  93 CALM      30.25R
$$
MIZ043>046-050>051-056>058-064>065-071>073-077>080-241300-
SOUTHWEST LOWER MICHIGAN

CITY           SKY/WX    TMP DP  RH WIND       PRES   REMARKS
BATTLE CREEK   CLOUDY    35  29  78 NE7       30.21F WCI  29
6HR MIN TEMP:  35; 6HR MAX TEMP:  36;

BENTON HARBOR  CLOUDY    34  29  82 NE6       30.19F WCI  29
6HR MIN TEMP:  34; 6HR MAX TEMP:  37;

BIG RAPIDS     FAIR      31  24  74 CALM      30.22S
6HR MIN TEMP:  31; 6HR MAX TEMP:  33;

COLDWATER      CLOUDY    35  33  93 NE8       30.20F WCI  29
6HR MIN TEMP:  35; 6HR MAX TEMP:  36;

HOLLAND        FAIR      32  27  81 NE3       30.23F
6HR MIN TEMP:  32; 6HR MAX TEMP:  36;

GRAND RAPIDS   CLOUDY    33  28  81 NE3       30.22F
6HR MIN TEMP:  33; 6HR MAX TEMP:  37;

IONIA          FAIR      33  29  85 CALM      30.22F
6HR MIN TEMP:  32; 6HR MAX TEMP:  36;

KALAMAZOO      CLOUDY    35  29  78 NE5       30.20F WCI  31
6HR MIN TEMP:  35; 6HR MAX TEMP:  37;

LUDINGTON      CLOUDY    28  26  92 CALM      30.24F
6HR MIN TEMP:  28; 6HR MAX TEMP:  33;

MARSHALL       CLOUDY    34  31  90 CALM      30.21F
6HR MIN TEMP:  34; 6HR MAX TEMP:  36;

MOUNT PLEASANT MOCLDY    32  28  84 CALM      30.24R
6HR MIN TEMP:  32; 6HR MAX TEMP:  36;

MUSKEGON       MOCLDY    30  25  81 N5        30.24F WCI  25
6HR MIN TEMP:  29; 6HR MAX TEMP:  35;

SOUTH HAVEN    CLOUDY    33  30  91 NE6       30.21F WCI  27
$$
MIZ016>042-241300-
NORTHERN LOWER MICHIGAN

CITY           SKY/WX    TMP DP  RH WIND       PRES   REMARKS
ALPENA         CLOUDY    30  23  75 NW5       30.26S WCI  25
6HR MIN TEMP:  30; 6HR MAX TEMP:  33;

BEAVER ISLAND  CLOUDY    31  24  76 SW3       30.24S
6HR MIN TEMP:  31; 6HR MAX TEMP:  32;

BELLAIRE       CLOUDY    31  27  85 CALM      30.26R
6HR MIN TEMP:  28; 6HR MAX TEMP:  33;

CADILLAC       CLOUDY    29  22  76 N5        30.21S WCI  24
CHARLEVOIX     CLOUDY    31  24  74 CALM      30.28S
6HR MIN TEMP:  31; 6HR MAX TEMP:  32;

FRANKFORT      CLOUDY    33  25  72 CALM      30.25S
GAYLORD        CLOUDY    28  23  81 N3        30.21F
6HR MIN TEMP:  28; 6HR MAX TEMP:  30;

GRAYLING       CLOUDY    29  23  78 CALM      30.23R
6HR MIN TEMP:  27; 6HR MAX TEMP:  32;

HARBOR SPRINGS CLOUDY    30  23  76 CALM      30.24F
HOUGHTON LAKE  CLOUDY    30  22  72 N7        30.23R WCI  23
6HR MIN TEMP:  30; 6HR MAX TEMP:  33;

MANISTEE       CLOUDY    32  24  72 NE3       30.24S
OSCODA         MOCLDY    28  22  76 N5        30.26R WCI  23
6HR MIN TEMP:  27; 6HR MAX TEMP:  36;

PELLSTON       CLOUDY    31  23  72 CALM      30.24F
6HR MIN TEMP:  31; 6HR MAX TEMP:  31;

ROGERS CITY    CLOUDY    31  23  72 CALM      30.26S
TRAVERSE CITY  CLOUDY    32  25  75 CALM      30.25R
6HR MIN TEMP:  32; 6HR MAX TEMP:  35;

$$
MIZ007>008-015-241300-
EASTERN UPPER MICHIGAN

CITY           SKY/WX    TMP DP  RH WIND       PRES   REMARKS
KINROSS        CLOUDY    28  23  81 W3        30.22S
6HR MIN TEMP:  28; 6HR MAX TEMP:  29;

MACKINAC ISLAN CLOUDY    29  24  80 W3        30.22F
6HR MIN TEMP:  29; 6HR MAX TEMP:  30;

NEWBERRY       CLOUDY    28  20  71 NW6       30.21S WCI  22
6HR MIN TEMP:  28; 6HR MAX TEMP:  29;

S. S. MARIE    CLOUDY    31  23  72 W6        30.20S WCI  25
6HR MIN TEMP:  30; 6HR MAX TEMP:  32;

MUNISING         N/A     29  25  85 CALM      30.21S
6HR MIN TEMP:  29; 6HR MAX TEMP:  32;

$$
MIZ004>006-011>014-085-241300-
CENTRAL UPPER MICHIGAN

CITY           SKY/WX    TMP DP  RH WIND       PRES   REMARKS
MANISTIQUE     CLOUDY    29  25  84 CALM      30.22F
6HR MIN TEMP:  29; 6HR MAX TEMP:  31;

ESCANABA       CLOUDY    29  22  75 CALM      30.23F
6HR MIN TEMP:  28; 6HR MAX TEMP:  32;

MENOMINEE      CLOUDY    29  25  85 CALM      30.25S
6HR MIN TEMP:  29; 6HR MAX TEMP:  32;

SAWYER-GWINN   CLOUDY    25  19  80 CALM      30.19S
$$
MIZ001>003-009>011-084-241300-
WESTERN UPPER MICHIGAN

CITY           SKY/WX    TMP DP  RH WIND       PRES   REMARKS
IRON MOUNTAIN  MOCLDY    19  15  84 CALM      30.18F
6HR MIN TEMP:  19; 6HR MAX TEMP:  30;

HOUGHTON       FAIR      15  11  83 SW3       30.15F FOG
6HR MIN TEMP:  14; 6HR MAX TEMP:  28;

COPPER HARBOR    N/A     26  19  74 VRB3      30.17F
6HR MIN TEMP:  25; 6HR MAX TEMP:  30;

IRONWOOD       CLOUDY    11   9  92 CALM      30.18F
6HR MIN TEMP:   6; 6HR MAX TEMP:  28;

$$

ABBREVIATIONS USED IN REMARKS
   TC - TEMPERATURE IN CELSIUS
  WCI - WIND CHILL INDEX
   HX - HEAT INDEX
  VSB - VISIBILITY




USA.gov is the U.S. government's official web portal to all federal, state and local government web resources and services.